Regional Weather Roundup
Issued by NWS

Home | Current Version | Previous Version | Graphics & Text | Print | Product List | Glossary On
Versions: 1 2 3 4 5 6 7 8 9 10 11 12 13 14 15 16 17 18 19 20 21 22 23 24 25 26 27 28 29 30 31 32 33 34 35 36 37 38 39 40 41 42 43 44 45 46 47 48 49 50
000
ASUS43 KDMX 170407
RWRIA

WEATHER ROUNDUP FOR IOWA
NATIONAL WEATHER SERVICE DES MOINES IA
1000 PM CST TUE DEC 16 2014

NOTE: "FAIR" INDICATES FEW OR NO CLOUDS BELOW 12,000 FEET WITH NO
SIGNIFICANT WEATHER AND/OR OBSTRUCTIONS TO VISIBILITY.

* - THESE STATIONS ARE NOT NWS STATIONS...THUS NOT UNDER NWS
QUALITY CONTROL.  THEY ALSO DO NOT REPORT WEATHER SUCH
AS PRECIPITATION OR FOG.

IAZ001>003-012>014-020>022-031>034-043>046-170500-
   NORTHWEST IOWA

CITY           SKY/WX    TMP DP  RH WIND       PRES   REMARKS
CARROLL *      CLOUDY    18  12  79 N10       30.32S WCI   6
CHEROKEE *     PTCLDY    12  10  92 NW5       30.33S WCI   4
DENISON *      CLOUDY    18  14  86 N8        30.31S WCI   7
LE MARS *      CLEAR     12   9  85 CALM      30.35S
ORANGE CITY *  CLEAR     10   9  92 NW5       30.31S WCI   2
SHELDON *      CLEAR     10   7  85 NW7       30.30S WCI   0
SIOUX CITY     PTCLDY    17  11  77 N7        30.36S WCI   8
SPENCER        CLEAR     10   6  84 NW5       30.30F WCI   2
STORM LAKE *   CLEAR     12   9  85 NW6       30.31S WCI   3
$$

IAZ055>058-069>071-079>083-090>094-170500-
   SOUTHWEST IOWA

CITY           SKY/WX    TMP DP  RH WIND       PRES   REMARKS
ATLANTIC *     CLEAR     18  12  79 N10       30.32F WCI   6
AUDUBON *      CLOUDY    18  10  73 N8        30.31S WCI   7
CLARINDA *     CLEAR     21  18  86 NW3       30.36S
COUNCIL BLFS * CLEAR     19  16  86 NW8       30.32F WCI   9
CRESTON *      CLEAR     19  14  79 N12G18    30.30S WCI   7
HARLAN  *      CLEAR     18  14  86 N12       30.36F WCI   5
LAMONI         CLEAR     21  17  84 N9        30.30R WCI  11
RED OAK *      CLEAR     19  16  86 NW8       30.34F WCI   9
SHENANDOAH *   CLEAR     21  16  79 NW5       30.37S WCI  15
$$

IAZ047>049-059>061-072>074-084-170500-
   CENTRAL IOWA

CITY           SKY/WX    TMP DP  RH WIND       PRES   REMARKS
AMES           PTCLDY    14   7  73 N13       30.32R WCI   0
ANKENY *       CLOUDY    19  12  73 N13       30.31S WCI   7
CHARITON *     CLOUDY    23  18  80 NW13      30.29S WCI  11
DES MOINES     FLURRIES  22  14  71 N14       30.31S WCI   9
GRINNELL*      FLURRIES  18  12  79 NW16      30.29S WCI   3
KNOXVILLE *    CLOUDY    23  16  74 N14       30.28R WCI  11
MARSHALLTOWN   CLOUDY    17  11  77 NW13      30.28F WCI   4
PELLA *        CLOUDY    21  16  79 NW13      30.31S WCI   9
PERRY *        CLOUDY    19  14  79 N13       30.33R WCI   7
$$

IAZ004>006-015-016-023>025-035-036-170500-
   NORTH CENTRAL IOWA

CITY           SKY/WX    TMP DP  RH WIND       PRES   REMARKS
ALGONA *       MOCLDY    14  10  85 N13G20    30.29F WCI   0
CLARION *      FLURRIES  16  14  93 NW16      30.28F WCI   0
ESTHERVILLE    CLEAR     11   8  88 NW14      30.29F WCI  -5
FORT DODGE *   CLOUDY    16   9  73 NW6       30.31S WCI   7
MASON CITY     CLOUDY    16  11  80 NW16      30.28S WCI   1
FOREST CITY *  CLOUDY    18  10  73 NW14      30.27F WCI   4
IOWA FALLS *   FLURRIES  18  12  79 NW13      30.28F WCI   4
$$

IAZ007>011-017>019-026>030-037>042-050>054-066-170500-
   NORTHEAST IOWA

CITY           SKY/WX    TMP DP  RH WIND       PRES   REMARKS
CEDAR RAPIDS   CLOUDY    18  13  80 NW17      30.24F WCI   3
CHARLES CITY * CLOUDY    19  14  79 NW13      30.26S WCI   7
CLINTON *      CLOUDY    25  18  74 NW20      30.24S WCI  11
DECORAH *      CLOUDY    21  14  73 NW12      30.21R WCI   9
DUBUQUE        CLOUDY    22  19  89 NW12      30.19S WCI  10
MONTICELLO *   CLOUDY    21  16  79 NW17G23   30.23R WCI   7
OELWEIN *      FLURRIES  19  16  86 NW14G21   30.24S WCI   6
WATERLOO       CLOUDY    18  12  77 NW16      30.26F WCI   3
$$

IAZ064-065-067-068-078-170500-
   EAST CENTRAL IOWA

CITY           SKY/WX    TMP DP  RH WIND       PRES   REMARKS
DAVENPORT      CLOUDY    22  16  78 W20       30.24R WCI   7
IOWA CITY      CLOUDY    20  13  74 W12       30.29S WCI   8
MT. PLEASANT * CLOUDY    23  16  74 NW16      30.28S WCI  10
MUSCATINE *    CLOUDY    21  16  79 NW16G22   30.29S WCI   7
QUAD CITIES    CLOUDY    23  16  74 NW16      30.24S WCI  10
$$

IAZ062-063-075>077-085>089-095>099-170500-
   SOUTHEAST IOWA

CITY           SKY/WX    TMP DP  RH WIND       PRES   REMARKS
BURLINGTON     CLOUDY    24  18  77 NW13      30.27S WCI  12
FAIRFIELD *    CLOUDY    23  16  74 NW18      30.28S WCI   9
FORT MADISON * CLOUDY    27  21  80 NW13      30.28S WCI  16
KEOKUK *       CLOUDY    27  21  80 NW13G18   30.28S WCI  16
OSKALOOSA *    CLOUDY    21  16  79 NW17      30.29S WCI   7
CENTERVILLE *  CLOUDY    25  19  80 NW12      30.30R WCI  14
OTTUMWA        CLOUDY    23  16  74 NW14      30.29S WCI  11
WASHINGTON *   CLOUDY    21  19  93 NW15      30.28S WCI   8
$$

ABBREVIATIONS USED IN REMARKS
   TC - TEMPERATURES IN CELSIUS
  WCI - WIND CHILL INDEX
   HX - HEAT INDEX
  VSB - VISIBILITY
$$




USA.gov is the U.S. government's official web portal to all federal, state and local government web resources and services.